owner,sensor,date,latitude,longitude,air_temperature,qcFlag 
NDBC,ioos:station:NOAA.NDBC:SANF1:1,2017-04-01T01:50:00Z,24.4560,-81.8770,25.6,1111122 
NDBC,ioos:station:NOAA.NDBC:SANF1:1,2017-04-01T02:50:00Z,24.4560,-81.8770,25.6,1111122 
NDBC,ioos:station:NOAA.NDBC:SANF1:1,2017-04-01T03:50:00Z,24.4560,-81.8770,25.6,1111122 
NDBC,ioos:station:NOAA.NDBC:SANF1:1,2017-04-01T05:50:00Z,24.4560,-81.8770,25.5,1111122 
NDBC,ioos:station:NOAA.NDBC:SANF1:1,2017-04-01T07:50:00Z,24.4560,-81.8770,25.6,1111122 
NDBC,ioos:station:NOAA.NDBC:SANF1:1,2017-04-01T08:50:00Z,24.4560,-81.8770,25.3,1111122 
NDBC,ioos:station:NOAA.NDBC:SANF1:1,2017-04-01T09:50:00Z,24.4560,-81.8770,25.1,1111122 
NDBC,ioos:station:NOAA.NDBC:SANF1:1,2017-04-01T10:50:00Z,24.4560,-81.8770,25.1,1111122 
NDBC,ioos:station:NOAA.NDBC:SANF1:1,2017-04-01T11:50:00Z,24.4560,-81.8770,25.1,1111122 
NDBC,ioos:station:NOAA.NDBC:SANF1:1,2017-04-01T12:50:00Z,24.4560,-81.8770,25.2,1111122 
NDBC,ioos:station:NOAA.NDBC:SANF1:1,2017-04-01T13:50:00Z,24.4560,-81.8770,25.4,1111122 
NDBC,ioos:station:NOAA.NDBC:SANF1:1,2017-04-01T14:50:00Z,24.4560,-81.8770,25.6,1111122 
NDBC,ioos:station:NOAA.NDBC:SANF1:1,2017-04-01T15:50:00Z,24.4560,-81.8770,25.8,1111122 
NDBC,ioos:station:NOAA.NDBC:SANF1:1,2017-04-01T16:50:00Z,24.4560,-81.8770,25.7,1111122 
NDBC,ioos:station:NOAA.NDBC:SANF1:1,2017-04-01T18:50:00Z,24.4560,-81.8770,26.1,1111122 
NDBC,ioos:station:NOAA.NDBC:SANF1:1,2017-04-01T19:50:00Z,24.4560,-81.8770,26.0,1111122 
NDBC,ioos:station:NOAA.NDBC:SANF1:1,2017-04-01T20:50:00Z,24.4560,-81.8770,26.1,1111122 
NDBC,ioos:station:NOAA.NDBC:SANF1:1,2017-04-01T21:50:00Z,24.4560,-81.8770,26.2,1111122 
NDBC,ioos:station:NOAA.NDBC:SANF1:1,2017-04-01T22:50:00Z,24.4560,-81.8770,26.2,1111122 
NDBC,ioos:station:NOAA.NDBC:SANF1:1,2017-04-01T23:50:00Z,24.4560,-81.8770,26.0,1111122 
NDBC,ioos:station:NOAA.NDBC:SANF1:1,2017-04-02T00:50:00Z,24.4560,-81.8770,26.2,1111122 
NDBC,ioos:station:NOAA.NDBC:SANF1:1,2017-04-02T02:50:00Z,24.4560,-81.8770,25.5,1111122 
NDBC,ioos:station:NOAA.NDBC:SANF1:1,2017-04-02T03:50:00Z,24.4560,-81.8770,25.0,1111122 
NDBC,ioos:station:NOAA.NDBC:SANF1:1,2017-04-02T05:50:00Z,24.4560,-81.8770,25.5,1111122 
NDBC,ioos:station:NOAA.NDBC:SANF1:1,2017-04-02T06:50:00Z,24.4560,-81.8770,26.1,1111122 
NDBC,ioos:station:NOAA.NDBC:SANF1:1,2017-04-02T07:50:00Z,24.4560,-81.8770,26.0,1111122 
NDBC,ioos:station:NOAA.NDBC:SANF1:1,2017-04-02T08:50:00Z,24.4560,-81.8770,25.8,1111122 
NDBC,ioos:station:NOAA.NDBC:SANF1:1,2017-04-02T09:50:00Z,24.4560,-81.8770,25.5,1111122 
NDBC,ioos:station:NOAA.NDBC:SANF1:1,2017-04-02T10:50:00Z,24.4560,-81.8770,25.6,1111122 
NDBC,ioos:station:NOAA.NDBC:SANF1:1,2017-04-02T11:50:00Z,24.4560,-81.8770,25.8,1111122 
NDBC,ioos:station:NOAA.NDBC:SANF1:1,2017-04-02T12:50:00Z,24.4560,-81.8770,25.6,1111122 
NDBC,ioos:station:NOAA.NDBC:SANF1:1,2017-04-02T14:50:00Z,24.4560,-81.8770,25.9,1111122 
NDBC,ioos:station:NOAA.NDBC:SANF1:1,2017-04-02T15:50:00Z,24.4560,-81.8770,26.2,1111122 
NDBC,ioos:station:NOAA.NDBC:SANF1:1,2017-04-02T16:50:00Z,24.4560,-81.8770,26.3,1111122 
NDBC,ioos:station:NOAA.NDBC:SANF1:1,2017-04-02T17:50:00Z,24.4560,-81.8770,26.1,1111122 
NDBC,ioos:station:NOAA.NDBC:SANF1:1,2017-04-02T18:50:00Z,24.4560,-81.8770,26.2,1111122 
NDBC,ioos:station:NOAA.NDBC:SANF1:1,2017-04-02T19:50:00Z,24.4560,-81.8770,26.2,1111122 
NDBC,ioos:station:NOAA.NDBC:SANF1:1,2017-04-02T20:50:00Z,24.4560,-81.8770,26.2,1111122 
NDBC,ioos:station:NOAA.NDBC:SANF1:1,2017-04-02T21:50:00Z,24.4560,-81.8770,26.3,1111122 
NDBC,ioos:station:NOAA.NDBC:SANF1:1,2017-04-02T22:50:00Z,24.4560,-81.8770,26.1,1111122 
NDBC,ioos:station:NOAA.NDBC:SANF1:1,2017-04-02T23:50:00Z,24.4560,-81.8770,26.2,1111122 
NDBC,ioos:station:NOAA.NDBC:SANF1:1,2017-04-03T00:50:00Z,24.4560,-81.8770,26.3,1111122 
NDBC,ioos:station:NOAA.NDBC:SANF1:1,2017-04-03T02:50:00Z,24.4560,-81.8770,26.4,1111122 
NDBC,ioos:station:NOAA.NDBC:SANF1:1,2017-04-03T03:50:00Z,24.4560,-81.8770,26.3,1111122 
NDBC,ioos:station:NOAA.NDBC:SANF1:1,2017-04-03T04:50:00Z,24.4560,-81.8770,26.3,1111122 
NDBC,ioos:station:NOAA.NDBC:SANF1:1,2017-04-03T05:50:00Z,24.4560,-81.8770,26.2,1111122 
NDBC,ioos:station:NOAA.NDBC:SANF1:1,2017-04-03T06:50:00Z,24.4560,-81.8770,26.1,1111122 
NDBC,ioos:station:NOAA.NDBC:SANF1:1,2017-04-03T07:50:00Z,24.4560,-81.8770,25.9,1111122 
NDBC,ioos:station:NOAA.NDBC:SANF1:1,2017-04-03T08:50:00Z,24.4560,-81.8770,26.0,1111122 
NDBC,ioos:station:NOAA.NDBC:SANF1:1,2017-04-03T09:50:00Z,24.4560,-81.8770,26.0,1111122 
NDBC,ioos:station:NOAA.NDBC:SANF1:1,2017-04-03T10:50:00Z,24.4560,-81.8770,25.9,1111122 
NDBC,ioos:station:NOAA.NDBC:SANF1:1,2017-04-03T12:50:00Z,24.4560,-81.8770,26.2,1111122 
NDBC,ioos:station:NOAA.NDBC:SANF1:1,2017-04-03T13:50:00Z,24.4560,-81.8770,26.1,1111122 
NDBC,ioos:station:NOAA.NDBC:SANF1:1,2017-04-03T15:50:00Z,24.4560,-81.8770,26.1,1111122 
NDBC,ioos:station:NOAA.NDBC:SANF1:1,2017-04-03T17:50:00Z,24.4560,-81.8770,26.1,1111122 
NDBC,ioos:station:NOAA.NDBC:SANF1:1,2017-04-03T18:50:00Z,24.4560,-81.8770,26.0,1111122 
NDBC,ioos:station:NOAA.NDBC:SANF1:1,2017-04-03T20:50:00Z,24.4560,-81.8770,25.8,1111122 
NDBC,ioos:station:NOAA.NDBC:SANF1:1,2017-04-03T22:50:00Z,24.4560,-81.8770,25.8,1111122 
NDBC,ioos:station:NOAA.NDBC:SANF1:1,2017-04-04T00:50:00Z,24.4560,-81.8770,25.7,1111122 
NDBC,ioos:station:NOAA.NDBC:SANF1:1,2017-04-04T02:50:00Z,24.4560,-81.8770,25.6,1111122 
NDBC,ioos:station:NOAA.NDBC:SANF1:1,2017-04-04T04:50:00Z,24.4560,-81.8770,25.7,1111122 
NDBC,ioos:station:NOAA.NDBC:SANF1:1,2017-04-04T05:50:00Z,24.4560,-81.8770,25.7,1111122 
NDBC,ioos:station:NOAA.NDBC:SANF1:1,2017-04-04T07:50:00Z,24.4560,-81.8770,25.6,1111122 
NDBC,ioos:station:NOAA.NDBC:SANF1:1,2017-04-04T08:50:00Z,24.4560,-81.8770,25.2,1111122 
NDBC,ioos:station:NOAA.NDBC:SANF1:1,2017-04-04T09:50:00Z,24.4560,-81.8770,25.3,1111122 
NDBC,ioos:station:NOAA.NDBC:SANF1:1,2017-04-04T10:50:00Z,24.4560,-81.8770,25.3,1111122 
NDBC,ioos:station:NOAA.NDBC:SANF1:1,2017-04-04T11:50:00Z,24.4560,-81.8770,25.3,1111122 
NDBC,ioos:station:NOAA.NDBC:SANF1:1,2017-04-04T12:50:00Z,24.4560,-81.8770,25.4,1111122 
NDBC,ioos:station:NOAA.NDBC:SANF1:1,2017-04-04T13:50:00Z,24.4560,-81.8770,25.5,1111122 
NDBC,ioos:station:NOAA.NDBC:SANF1:1,2017-04-04T14:50:00Z,24.4560,-81.8770,25.7,1111122 
NDBC,ioos:station:NOAA.NDBC:SANF1:1,2017-04-04T15:50:00Z,24.4560,-81.8770,25.5,1111122 
NDBC,ioos:station:NOAA.NDBC:SANF1:1,2017-04-04T16:50:00Z,24.4560,-81.8770,25.6,1111122 
NDBC,ioos:station:NOAA.NDBC:SANF1:1,2017-04-04T17:50:00Z,24.4560,-81.8770,25.7,1111122 
NDBC,ioos:station:NOAA.NDBC:SANF1:1,2017-04-04T19:50:00Z,24.4560,-81.8770,25.7,1111122 
NDBC,ioos:station:NOAA.NDBC:SANF1:1,2017-04-04T20:50:00Z,24.4560,-81.8770,25.7,1111122 
NDBC,ioos:station:NOAA.NDBC:SANF1:1,2017-04-04T21:50:00Z,24.4560,-81.8770,25.7,1111122 
NDBC,ioos:station:NOAA.NDBC:SANF1:1,2017-04-06T14:50:00Z,24.4560,-81.8770,26.1,1111122 
NDBC,ioos:station:NOAA.NDBC:SANF1:1,2017-04-06T15:50:00Z,24.4560,-81.8770,26.2,1111122 
NDBC,ioos:station:NOAA.NDBC:SANF1:1,2017-04-06T16:50:00Z,24.4560,-81.8770,26.3,1111122 
NDBC,ioos:station:NOAA.NDBC:SANF1:1,2017-04-06T17:50:00Z,24.4560,-81.8770,26.1,1111122 
NDBC,ioos:station:NOAA.NDBC:SANF1:1,2017-04-06T18:50:00Z,24.4560,-81.8770,26.3,1111122 
NDBC,ioos:station:NOAA.NDBC:SANF1:1,2017-04-06T20:50:00Z,24.4560,-81.8770,26.3,1111122 
NDBC,ioos:station:NOAA.NDBC:SANF1:1,2017-04-06T22:50:00Z,24.4560,-81.8770,24.1,1111122 
NDBC,ioos:station:NOAA.NDBC:SANF1:1,2017-04-06T23:50:00Z,24.4560,-81.8770,23.7,1111122 
NDBC,ioos:station:NOAA.NDBC:SANF1:1,2017-04-07T00:50:00Z,24.4560,-81.8770,23.5,1111122 
NDBC,ioos:station:NOAA.NDBC:SANF1:1,2017-04-07T01:50:00Z,24.4560,-81.8770,23.2,1111122 
NDBC,ioos:station:NOAA.NDBC:SANF1:1,2017-04-07T02:50:00Z,24.4560,-81.8770,22.8,1111122 
NDBC,ioos:station:NOAA.NDBC:SANF1:1,2017-04-07T03:50:00Z,24.4560,-81.8770,22.6,1111122 
NDBC,ioos:station:NOAA.NDBC:SANF1:1,2017-04-07T04:50:00Z,24.4560,-81.8770,22.4,1111122 
NDBC,ioos:station:NOAA.NDBC:SANF1:1,2017-04-07T05:50:00Z,24.4560,-81.8770,22.4,1111122 
NDBC,ioos:station:NOAA.NDBC:SANF1:1,2017-04-07T06:50:00Z,24.4560,-81.8770,22.3,1111122 
NDBC,ioos:station:NOAA.NDBC:SANF1:1,2017-04-07T07:50:00Z,24.4560,-81.8770,22.0,1111122 
NDBC,ioos:station:NOAA.NDBC:SANF1:1,2017-04-07T08:50:00Z,24.4560,-81.8770,21.8,1111122 
NDBC,ioos:station:NOAA.NDBC:SANF1:1,2017-04-07T09:50:00Z,24.4560,-81.8770,21.8,1111122 
NDBC,ioos:station:NOAA.NDBC:SANF1:1,2017-04-07T10:50:00Z,24.4560,-81.8770,21.5,1111122 
NDBC,ioos:station:NOAA.NDBC:SANF1:1,2017-04-07T11:50:00Z,24.4560,-81.8770,21.4,1111122 
NDBC,ioos:station:NOAA.NDBC:SANF1:1,2017-04-07T12:50:00Z,24.4560,-81.8770,21.3,1111122 
NDBC,ioos:station:NOAA.NDBC:SANF1:1,2017-04-07T13:50:00Z,24.4560,-81.8770,21.4,1111122 
NDBC,ioos:station:NOAA.NDBC:SANF1:1,2017-04-07T14:50:00Z,24.4560,-81.8770,21.3,1111122 
NDBC,ioos:station:NOAA.NDBC:SANF1:1,2017-04-07T15:50:00Z,24.4560,-81.8770,21.5,1111122 
NDBC,ioos:station:NOAA.NDBC:SANF1:1,2017-04-07T17:50:00Z,24.4560,-81.8770,21.0,1111122 
NDBC,ioos:station:NOAA.NDBC:SANF1:1,2017-04-07T18:50:00Z,24.4560,-81.8770,20.8,1111122 
NDBC,ioos:station:NOAA.NDBC:SANF1:1,2017-04-07T20:50:00Z,24.4560,-81.8770,20.7,1111122 
NDBC,ioos:station:NOAA.NDBC:SANF1:1,2017-04-07T21:50:00Z,24.4560,-81.8770,20.5,1111122 
NDBC,ioos:station:NOAA.NDBC:SANF1:1,2017-04-07T22:50:00Z,24.4560,-81.8770,20.5,1111122 
NDBC,ioos:station:NOAA.NDBC:SANF1:1,2017-04-07T23:50:00Z,24.4560,-81.8770,20.3,1111122 
NDBC,ioos:station:NOAA.NDBC:SANF1:1,2017-04-08T00:50:00Z,24.4560,-81.8770,20.3,1111122 
NDBC,ioos:station:NOAA.NDBC:SANF1:1,2017-04-08T01:50:00Z,24.4560,-81.8770,20.4,1111122 
NDBC,ioos:station:NOAA.NDBC:SANF1:1,2017-04-08T02:50:00Z,24.4560,-81.8770,20.3,1111122 
NDBC,ioos:station:NOAA.NDBC:SANF1:1,2017-04-08T03:50:00Z,24.4560,-81.8770,20.1,1111122 
NDBC,ioos:station:NOAA.NDBC:SANF1:1,2017-04-08T04:50:00Z,24.4560,-81.8770,20.1,1111122 
NDBC,ioos:station:NOAA.NDBC:SANF1:1,2017-04-08T05:50:00Z,24.4560,-81.8770,19.9,1111122 
NDBC,ioos:station:NOAA.NDBC:SANF1:1,2017-04-08T07:50:00Z,24.4560,-81.8770,19.8,1111122 
NDBC,ioos:station:NOAA.NDBC:SANF1:1,2017-04-08T08:50:00Z,24.4560,-81.8770,19.8,1111122 
NDBC,ioos:station:NOAA.NDBC:SANF1:1,2017-04-08T09:50:00Z,24.4560,-81.8770,20.0,1111122 
NDBC,ioos:station:NOAA.NDBC:SANF1:1,2017-04-08T10:50:00Z,24.4560,-81.8770,19.8,1111122 
NDBC,ioos:station:NOAA.NDBC:SANF1:1,2017-04-08T11:50:00Z,24.4560,-81.8770,19.9,1111122 
NDBC,ioos:station:NOAA.NDBC:SANF1:1,2017-04-08T12:50:00Z,24.4560,-81.8770,19.8,1111122 
NDBC,ioos:station:NOAA.NDBC:SANF1:1,2017-04-08T13:50:00Z,24.4560,-81.8770,19.8,1111122 
NDBC,ioos:station:NOAA.NDBC:SANF1:1,2017-04-08T14:50:00Z,24.4560,-81.8770,19.6,1111122 
NDBC,ioos:station:NOAA.NDBC:SANF1:1,2017-04-08T15:50:00Z,24.4560,-81.8770,19.5,1111122 
NDBC,ioos:station:NOAA.NDBC:SANF1:1,2017-04-08T17:50:00Z,24.4560,-81.8770,19.7,1111122 
NDBC,ioos:station:NOAA.NDBC:SANF1:1,2017-04-08T18:50:00Z,24.4560,-81.8770,19.7,1111122 
NDBC,ioos:station:NOAA.NDBC:SANF1:1,2017-04-08T19:50:00Z,24.4560,-81.8770,19.8,1111122 
NDBC,ioos:station:NOAA.NDBC:SANF1:1,2017-04-08T21:50:00Z,24.4560,-81.8770,20.2,1111122 
NDBC,ioos:station:NOAA.NDBC:SANF1:1,2017-04-08T22:50:00Z,24.4560,-81.8770,20.3,1111122 
NDBC,ioos:station:NOAA.NDBC:SANF1:1,2017-04-08T23:50:00Z,24.4560,-81.8770,20.2,1111122 
NDBC,ioos:station:NOAA.NDBC:SANF1:1,2017-04-09T00:50:00Z,24.4560,-81.8770,20.4,1111122 
NDBC,ioos:station:NOAA.NDBC:SANF1:1,2017-04-09T01:50:00Z,24.4560,-81.8770,20.4,1111122 
NDBC,ioos:station:NOAA.NDBC:SANF1:1,2017-04-09T02:50:00Z,24.4560,-81.8770,20.6,1111122 
NDBC,ioos:station:NOAA.NDBC:SANF1:1,2017-04-09T04:50:00Z,24.4560,-81.8770,20.8,1111122 
NDBC,ioos:station:NOAA.NDBC:SANF1:1,2017-04-09T05:50:00Z,24.4560,-81.8770,20.9,1111122 
NDBC,ioos:station:NOAA.NDBC:SANF1:1,2017-04-09T06:50:00Z,24.4560,-81.8770,21.0,1111122 
NDBC,ioos:station:NOAA.NDBC:SANF1:1,2017-04-09T07:50:00Z,24.4560,-81.8770,21.1,1111122 
NDBC,ioos:station:NOAA.NDBC:SANF1:1,2017-04-09T08:50:00Z,24.4560,-81.8770,21.2,1111122 
NDBC,ioos:station:NOAA.NDBC:SANF1:1,2017-04-09T09:50:00Z,24.4560,-81.8770,20.9,1111122 
NDBC,ioos:station:NOAA.NDBC:SANF1:1,2017-04-09T10:50:00Z,24.4560,-81.8770,20.9,1111122 
NDBC,ioos:station:NOAA.NDBC:SANF1:1,2017-04-09T11:50:00Z,24.4560,-81.8770,21.0,1111122 
NDBC,ioos:station:NOAA.NDBC:SANF1:1,2017-04-09T12:50:00Z,24.4560,-81.8770,21.4,1111122 
NDBC,ioos:station:NOAA.NDBC:SANF1:1,2017-04-09T13:50:00Z,24.4560,-81.8770,21.4,1111122 
NDBC,ioos:station:NOAA.NDBC:SANF1:1,2017-04-09T14:50:00Z,24.4560,-81.8770,21.8,1111122 
NDBC,ioos:station:NOAA.NDBC:SANF1:1,2017-04-09T16:50:00Z,24.4560,-81.8770,22.6,1111122 
NDBC,ioos:station:NOAA.NDBC:SANF1:1,2017-04-09T17:50:00Z,24.4560,-81.8770,23.0,1111122 
NDBC,ioos:station:NOAA.NDBC:SANF1:1,2017-04-09T18:50:00Z,24.4560,-81.8770,23.2,1111122 
NDBC,ioos:station:NOAA.NDBC:SANF1:1,2017-04-09T19:50:00Z,24.4560,-81.8770,23.5,1111122 
NDBC,ioos:station:NOAA.NDBC:SANF1:1,2017-04-09T20:50:00Z,24.4560,-81.8770,23.9,1111122 
NDBC,ioos:station:NOAA.NDBC:SANF1:1,2017-04-09T21:50:00Z,24.4560,-81.8770,24.3,1111122 
NDBC,ioos:station:NOAA.NDBC:SANF1:1,2017-04-09T22:50:00Z,24.4560,-81.8770,24.2,1111122 
NDBC,ioos:station:NOAA.NDBC:SANF1:1,2017-04-09T23:50:00Z,24.4560,-81.8770,24.2,1111122 
NDBC,ioos:station:NOAA.NDBC:SANF1:1,2017-04-10T00:50:00Z,24.4560,-81.8770,24.2,1111122 
NDBC,ioos:station:NOAA.NDBC:SANF1:1,2017-04-10T01:50:00Z,24.4560,-81.8770,24.2,1111122 
NDBC,ioos:station:NOAA.NDBC:SANF1:1,2017-04-10T03:50:00Z,24.4560,-81.8770,24.1,1111122 
NDBC,ioos:station:NOAA.NDBC:SANF1:1,2017-04-10T04:50:00Z,24.4560,-81.8770,24.2,1111122 
NDBC,ioos:station:NOAA.NDBC:SANF1:1,2017-04-10T06:50:00Z,24.4560,-81.8770,24.1,1111122 
NDBC,ioos:station:NOAA.NDBC:SANF1:1,2017-04-10T07:50:00Z,24.4560,-81.8770,24.0,1111122 
NDBC,ioos:station:NOAA.NDBC:SANF1:1,2017-04-10T08:50:00Z,24.4560,-81.8770,24.1,1111122 
NDBC,ioos:station:NOAA.NDBC:SANF1:1,2017-04-10T09:50:00Z,24.4560,-81.8770,24.1,1111122 
NDBC,ioos:station:NOAA.NDBC:SANF1:1,2017-04-10T10:50:00Z,24.4560,-81.8770,23.8,1111122 
NDBC,ioos:station:NOAA.NDBC:SANF1:1,2017-04-10T11:50:00Z,24.4560,-81.8770,23.2,1111122 
NDBC,ioos:station:NOAA.NDBC:SANF1:1,2017-04-10T12:50:00Z,24.4560,-81.8770,24.3,1111122 
NDBC,ioos:station:NOAA.NDBC:SANF1:1,2017-04-10T14:50:00Z,24.4560,-81.8770,23.7,1111122 
NDBC,ioos:station:NOAA.NDBC:SANF1:1,2017-04-10T15:50:00Z,24.4560,-81.8770,24.0,1111122 
NDBC,ioos:station:NOAA.NDBC:SANF1:1,2017-04-10T16:50:00Z,24.4560,-81.8770,24.1,1111122 
NDBC,ioos:station:NOAA.NDBC:SANF1:1,2017-04-10T18:50:00Z,24.4560,-81.8770,24.2,1111122 
NDBC,ioos:station:NOAA.NDBC:SANF1:1,2017-04-10T20:50:00Z,24.4560,-81.8770,24.4,1111122 
NDBC,ioos:station:NOAA.NDBC:SANF1:1,2017-04-10T21:50:00Z,24.4560,-81.8770,24.6,1111122 
NDBC,ioos:station:NOAA.NDBC:SANF1:1,2017-04-10T22:50:00Z,24.4560,-81.8770,24.5,1111122 
NDBC,ioos:station:NOAA.NDBC:SANF1:1,2017-04-10T23:50:00Z,24.4560,-81.8770,24.5,1111122 
NDBC,ioos:station:NOAA.NDBC:SANF1:1,2017-04-11T00:50:00Z,24.4560,-81.8770,24.5,1111122 
NDBC,ioos:station:NOAA.NDBC:SANF1:1,2017-04-11T02:50:00Z,24.4560,-81.8770,24.3,1111122 
NDBC,ioos:station:NOAA.NDBC:SANF1:1,2017-04-11T04:50:00Z,24.4560,-81.8770,24.3,1111122 
NDBC,ioos:station:NOAA.NDBC:SANF1:1,2017-04-11T05:50:00Z,24.4560,-81.8770,24.0,1111122 
NDBC,ioos:station:NOAA.NDBC:SANF1:1,2017-04-11T06:50:00Z,24.4560,-81.8770,23.6,1111122 
NDBC,ioos:station:NOAA.NDBC:SANF1:1,2017-04-11T07:50:00Z,24.4560,-81.8770,23.5,1111122 
NDBC,ioos:station:NOAA.NDBC:SANF1:1,2017-04-11T08:50:00Z,24.4560,-81.8770,23.0,1111122 
NDBC,ioos:station:NOAA.NDBC:SANF1:1,2017-04-11T09:50:00Z,24.4560,-81.8770,22.8,1111122 
NDBC,ioos:station:NOAA.NDBC:SANF1:1,2017-04-11T10:50:00Z,24.4560,-81.8770,22.8,1111122 
NDBC,ioos:station:NOAA.NDBC:SANF1:1,2017-04-11T11:50:00Z,24.4560,-81.8770,22.8,1111122 
NDBC,ioos:station:NOAA.NDBC:SANF1:1,2017-04-11T12:50:00Z,24.4560,-81.8770,22.9,1111122 
NDBC,ioos:station:NOAA.NDBC:SANF1:1,2017-04-11T13:50:00Z,24.4560,-81.8770,23.1,1111122 
NDBC,ioos:station:NOAA.NDBC:SANF1:1,2017-04-11T14:50:00Z,24.4560,-81.8770,23.5,1111122 
NDBC,ioos:station:NOAA.NDBC:SANF1:1,2017-04-11T15:50:00Z,24.4560,-81.8770,24.0,1111122 
NDBC,ioos:station:NOAA.NDBC:SANF1:1,2017-04-11T16:50:00Z,24.4560,-81.8770,24.1,1111122 
NDBC,ioos:station:NOAA.NDBC:SANF1:1,2017-04-11T18:50:00Z,24.4560,-81.8770,24.3,1111122 
NDBC,ioos:station:NOAA.NDBC:SANF1:1,2017-04-11T19:50:00Z,24.4560,-81.8770,24.4,1111122 
NDBC,ioos:station:NOAA.NDBC:SANF1:1,2017-04-11T20:50:00Z,24.4560,-81.8770,24.5,1111122 
NDBC,ioos:station:NOAA.NDBC:SANF1:1,2017-04-11T21:50:00Z,24.4560,-81.8770,24.6,1111122 
NDBC,ioos:station:NOAA.NDBC:SANF1:1,2017-04-11T22:50:00Z,24.4560,-81.8770,24.5,1111122 
NDBC,ioos:station:NOAA.NDBC:SANF1:1,2017-04-11T23:50:00Z,24.4560,-81.8770,24.4,1111122 
NDBC,ioos:station:NOAA.NDBC:SANF1:1,2017-04-12T00:50:00Z,24.4560,-81.8770,24.5,1111122 
NDBC,ioos:station:NOAA.NDBC:SANF1:1,2017-04-12T01:50:00Z,24.4560,-81.8770,24.5,1111122 
NDBC,ioos:station:NOAA.NDBC:SANF1:1,2017-04-12T02:50:00Z,24.4560,-81.8770,24.3,1111122 
NDBC,ioos:station:NOAA.NDBC:SANF1:1,2017-04-12T04:50:00Z,24.4560,-81.8770,23.9,1111122 
NDBC,ioos:station:NOAA.NDBC:SANF1:1,2017-04-12T05:50:00Z,24.4560,-81.8770,23.6,1111122 
NDBC,ioos:station:NOAA.NDBC:SANF1:1,2017-04-12T06:50:00Z,24.4560,-81.8770,23.6,1111122 
NDBC,ioos:station:NOAA.NDBC:SANF1:1,2017-04-12T07:50:00Z,24.4560,-81.8770,23.6,1111122 
NDBC,ioos:station:NOAA.NDBC:SANF1:1,2017-04-12T08:50:00Z,24.4560,-81.8770,23.1,1111122 
NDBC,ioos:station:NOAA.NDBC:SANF1:1,2017-04-12T09:50:00Z,24.4560,-81.8770,22.8,1111122 
NDBC,ioos:station:NOAA.NDBC:SANF1:1,2017-04-12T10:50:00Z,24.4560,-81.8770,23.1,1111122 
NDBC,ioos:station:NOAA.NDBC:SANF1:1,2017-04-12T11:50:00Z,24.4560,-81.8770,23.1,1111122 
NDBC,ioos:station:NOAA.NDBC:SANF1:1,2017-04-12T12:50:00Z,24.4560,-81.8770,23.2,1111122 
NDBC,ioos:station:NOAA.NDBC:SANF1:1,2017-04-12T13:50:00Z,24.4560,-81.8770,23.4,1111122 
NDBC,ioos:station:NOAA.NDBC:SANF1:1,2017-04-12T15:50:00Z,24.4560,-81.8770,23.3,1111122 
NDBC,ioos:station:NOAA.NDBC:SANF1:1,2017-04-12T17:50:00Z,24.4560,-81.8770,22.8,1111122 
NDBC,ioos:station:NOAA.NDBC:SANF1:1,2017-04-12T18:50:00Z,24.4560,-81.8770,22.1,1111122 
NDBC,ioos:station:NOAA.NDBC:SANF1:1,2017-04-12T19:50:00Z,24.4560,-81.8770,21.9,1111122 
NDBC,ioos:station:NOAA.NDBC:SANF1:1,2017-04-12T21:50:00Z,24.4560,-81.8770,23.8,1111122 
NDBC,ioos:station:NOAA.NDBC:SANF1:1,2017-04-12T22:50:00Z,24.4560,-81.8770,23.6,1111122 
NDBC,ioos:station:NOAA.NDBC:SANF1:1,2017-04-12T23:50:00Z,24.4560,-81.8770,23.7,1111122 
NDBC,ioos:station:NOAA.NDBC:SANF1:1,2017-04-13T00:50:00Z,24.4560,-81.8770,23.5,1111122 
NDBC,ioos:station:NOAA.NDBC:SANF1:1,2017-04-13T01:50:00Z,24.4560,-81.8770,23.2,1111122 
NDBC,ioos:station:NOAA.NDBC:SANF1:1,2017-04-13T02:50:00Z,24.4560,-81.8770,23.8,1111122 
NDBC,ioos:station:NOAA.NDBC:SANF1:1,2017-04-13T03:50:00Z,24.4560,-81.8770,24.0,1111122 
NDBC,ioos:station:NOAA.NDBC:SANF1:1,2017-04-13T04:50:00Z,24.4560,-81.8770,23.9,1111122 
NDBC,ioos:station:NOAA.NDBC:SANF1:1,2017-04-13T05:50:00Z,24.4560,-81.8770,23.7,1111122 
NDBC,ioos:station:NOAA.NDBC:SANF1:1,2017-04-13T06:50:00Z,24.4560,-81.8770,22.2,1111122 
NDBC,ioos:station:NOAA.NDBC:SANF1:1,2017-04-13T07:50:00Z,24.4560,-81.8770,22.5,1111122 
NDBC,ioos:station:NOAA.NDBC:SANF1:1,2017-04-13T08:50:00Z,24.4560,-81.8770,22.7,1111122 
NDBC,ioos:station:NOAA.NDBC:SANF1:1,2017-04-13T09:50:00Z,24.4560,-81.8770,22.3,1111122 
NDBC,ioos:station:NOAA.NDBC:SANF1:1,2017-04-13T10:50:00Z,24.4560,-81.8770,21.6,1111122 
NDBC,ioos:station:NOAA.NDBC:SANF1:1,2017-04-13T11:50:00Z,24.4560,-81.8770,21.8,1111122 
NDBC,ioos:station:NOAA.NDBC:SANF1:1,2017-04-13T12:50:00Z,24.4560,-81.8770,22.4,1111122 
NDBC,ioos:station:NOAA.NDBC:SANF1:1,2017-04-13T13:50:00Z,24.4560,-81.8770,24.4,1111122 
NDBC,ioos:station:NOAA.NDBC:SANF1:1,2017-04-13T14:50:00Z,24.4560,-81.8770,22.6,1111122 
NDBC,ioos:station:NOAA.NDBC:SANF1:1,2017-04-13T15:50:00Z,24.4560,-81.8770,22.7,1111122 
NDBC,ioos:station:NOAA.NDBC:SANF1:1,2017-04-13T16:50:00Z,24.4560,-81.8770,24.5,1111122 
NDBC,ioos:station:NOAA.NDBC:SANF1:1,2017-04-13T18:50:00Z,24.4560,-81.8770,23.3,1111122 
NDBC,ioos:station:NOAA.NDBC:SANF1:1,2017-04-13T19:50:00Z,24.4560,-81.8770,24.5,1111122 
NDBC,ioos:station:NOAA.NDBC:SANF1:1,2017-04-13T20:50:00Z,24.4560,-81.8770,24.4,1111122 
NDBC,ioos:station:NOAA.NDBC:SANF1:1,2017-04-13T21:50:00Z,24.4560,-81.8770,24.3,1111122 
NDBC,ioos:station:NOAA.NDBC:SANF1:1,2017-04-13T22:50:00Z,24.4560,-81.8770,24.3,1111122 
NDBC,ioos:station:NOAA.NDBC:SANF1:1,2017-04-13T23:50:00Z,24.4560,-81.8770,24.2,1111122 
NDBC,ioos:station:NOAA.NDBC:SANF1:1,2017-04-14T00:50:00Z,24.4560,-81.8770,24.2,1111122 
NDBC,ioos:station:NOAA.NDBC:SANF1:1,2017-04-14T01:50:00Z,24.4560,-81.8770,24.2,1111122 
NDBC,ioos:station:NOAA.NDBC:SANF1:1,2017-04-14T02:50:00Z,24.4560,-81.8770,24.0,1111122 
NDBC,ioos:station:NOAA.NDBC:SANF1:1,2017-04-14T03:50:00Z,24.4560,-81.8770,23.9,1111122 
NDBC,ioos:station:NOAA.NDBC:SANF1:1,2017-04-14T04:50:00Z,24.4560,-81.8770,23.7,1111122 
NDBC,ioos:station:NOAA.NDBC:SANF1:1,2017-04-14T05:50:00Z,24.4560,-81.8770,23.5,1111122 
NDBC,ioos:station:NOAA.NDBC:SANF1:1,2017-04-14T06:50:00Z,24.4560,-81.8770,23.3,1111122 
NDBC,ioos:station:NOAA.NDBC:SANF1:1,2017-04-14T07:50:00Z,24.4560,-81.8770,23.1,1111122 
NDBC,ioos:station:NOAA.NDBC:SANF1:1,2017-04-14T08:50:00Z,24.4560,-81.8770,22.9,1111122 
NDBC,ioos:station:NOAA.NDBC:SANF1:1,2017-04-14T09:50:00Z,24.4560,-81.8770,22.9,1111122 
NDBC,ioos:station:NOAA.NDBC:SANF1:1,2017-04-14T10:50:00Z,24.4560,-81.8770,22.8,1111122 
NDBC,ioos:station:NOAA.NDBC:SANF1:1,2017-04-14T11:50:00Z,24.4560,-81.8770,22.9,1111122 
NDBC,ioos:station:NOAA.NDBC:SANF1:1,2017-04-14T12:50:00Z,24.4560,-81.8770,22.9,1111122 
NDBC,ioos:station:NOAA.NDBC:SANF1:1,2017-04-14T13:50:00Z,24.4560,-81.8770,23.2,1111122 
NDBC,ioos:station:NOAA.NDBC:SANF1:1,2017-04-14T14:50:00Z,24.4560,-81.8770,23.5,1111122 
NDBC,ioos:station:NOAA.NDBC:SANF1:1,2017-04-14T15:50:00Z,24.4560,-81.8770,23.8,1111122 
NDBC,ioos:station:NOAA.NDBC:SANF1:1,2017-04-14T16:50:00Z,24.4560,-81.8770,23.8,1111122 
NDBC,ioos:station:NOAA.NDBC:SANF1:1,2017-04-14T17:50:00Z,24.4560,-81.8770,24.0,1111122 
NDBC,ioos:station:NOAA.NDBC:SANF1:1,2017-04-14T18:50:00Z,24.4560,-81.8770,24.2,1111122 
NDBC,ioos:station:NOAA.NDBC:SANF1:1,2017-04-14T20:50:00Z,24.4560,-81.8770,24.6,1111122 
NDBC,ioos:station:NOAA.NDBC:SANF1:1,2017-04-14T21:50:00Z,24.4560,-81.8770,24.3,1111122 
NDBC,ioos:station:NOAA.NDBC:SANF1:1,2017-04-14T22:50:00Z,24.4560,-81.8770,24.5,1111122 
NDBC,ioos:station:NOAA.NDBC:SANF1:1,2017-04-14T23:50:00Z,24.4560,-81.8770,24.5,1111122 
NDBC,ioos:station:NOAA.NDBC:SANF1:1,2017-04-15T00:50:00Z,24.4560,-81.8770,24.6,1111122 
NDBC,ioos:station:NOAA.NDBC:SANF1:1,2017-04-15T01:50:00Z,24.4560,-81.8770,24.6,1111122 
NDBC,ioos:station:NOAA.NDBC:SANF1:1,2017-04-15T02:50:00Z,24.4560,-81.8770,24.6,1111122 
NDBC,ioos:station:NOAA.NDBC:SANF1:1,2017-04-15T03:50:00Z,24.4560,-81.8770,24.4,1111122 
NDBC,ioos:station:NOAA.NDBC:SANF1:1,2017-04-15T04:50:00Z,24.4560,-81.8770,24.1,1111122 
NDBC,ioos:station:NOAA.NDBC:SANF1:1,2017-04-15T05:50:00Z,24.4560,-81.8770,23.3,1111122 
NDBC,ioos:station:NOAA.NDBC:SANF1:1,2017-04-15T06:50:00Z,24.4560,-81.8770,24.1,1111122 
NDBC,ioos:station:NOAA.NDBC:SANF1:1,2017-04-15T07:50:00Z,24.4560,-81.8770,24.0,1111122 
NDBC,ioos:station:NOAA.NDBC:SANF1:1,2017-04-15T08:50:00Z,24.4560,-81.8770,24.4,1111122 
NDBC,ioos:station:NOAA.NDBC:SANF1:1,2017-04-15T09:50:00Z,24.4560,-81.8770,24.3,1111122 
NDBC,ioos:station:NOAA.NDBC:SANF1:1,2017-04-15T10:50:00Z,24.4560,-81.8770,23.1,1111122 
NDBC,ioos:station:NOAA.NDBC:SANF1:1,2017-04-15T11:50:00Z,24.4560,-81.8770,23.0,1111122 
NDBC,ioos:station:NOAA.NDBC:SANF1:1,2017-04-15T12:50:00Z,24.4560,-81.8770,24.6,1111122 
NDBC,ioos:station:NOAA.NDBC:SANF1:1,2017-04-15T13:50:00Z,24.4560,-81.8770,24.6,1111122 
NDBC,ioos:station:NOAA.NDBC:SANF1:1,2017-04-15T14:50:00Z,24.4560,-81.8770,24.7,1111122 
NDBC,ioos:station:NOAA.NDBC:SANF1:1,2017-04-15T15:50:00Z,24.4560,-81.8770,24.7,1111122 
NDBC,ioos:station:NOAA.NDBC:SANF1:1,2017-04-15T16:50:00Z,24.4560,-81.8770,24.7,1111122 